User: anonymous   Login
Location: Irma
(52.9170°N, 111.2330°W)
Time: 12:44:09
(UTC-06:00)
Language:

Cosmos 2279 Rocket - Orbit

View from above orbital plane
View from above orbital plane
View from above satellite
View from above satellite

Ground track
Ground track

The orbit data is extracted from the following two-line orbital elements,

1 23093U 94024B   17289.86954462 +.00000016 +00000-0 +50279-6 0  9993
2 23093 082.9506 023.9870 0010625 030.5255 329.6519 13.77734908647946
Epoch (UTC): 16 October 2017 20:52:08
Eccentricity: 0.0010625
inclination: 82.9506°
perigee height: 964 km
apogee height: 980 km
right ascension of ascending node: 23.9870°
argument of perigee: 30.5255°
revolutions per day: 13.77734908
mean anomaly at epoch: 329.6519°
orbit number at epoch: 64794

The dashed part of the orbit path shows where the satellite is in the earth's shadow,  

DLR